Weather History for Thermopolis, WY

Change the Weather History Date:

Sunday, September 15, 2013

  Actual Average (KWRL) Record (KWRL)
Temperature  
Mean Temperature 52 °F 59 °F  
Max Temperature 55 °F 75 °F 94 °F (2000)
Min Temperature 50 °F 43 °F 30 °F (1965)
Degree Days  
Heating Degree Days 12 7  
Month to date heating degree days 67  
Since 1 July heating degree days 103  
Cooling Degree Days 0 1  
Month to date cooling degree days 25  
Year to date cooling degree days 531  
Growing Degree Days 2 (Base 50)    
Moisture  
Dew Point 50 °F    
Average Humidity 93    
Maximum Humidity 100    
Minimum Humidity 77    
Precipitation  
Precipitation 0.00 in 0.03 in 0.41 in (1960)
Month to date precipitation 0.37  
Year to date precipitation 5.82  
Sea Level Pressure  
Sea Level Pressure 30.36 in    
Wind  
Wind Speed 12 mph (ENE)    
Max Wind Speed 29 mph    
Max Gust Speed 33 mph    
Visibility 5 miles    
Events Fog , Rain    
T = Trace of Precipitation, MM = Missing Value Source: NWS Daily Summary

Daily Weather History Graph

Daily Weather History Graph

Search for Another Location

Airport:

Trip Planner

Search our weather history database for the weather conditions in past years. The results will help you decide how hot, cold, wet, or windy it might be!

Date:

Astronomy

Sep. 15, 2013 Rise Set
Actual Time 6:52 AM MDT 7:22 PM MDT
Civil Twilight 6:23 AM MDT 7:51 PM MDT
Nautical Twilight 5:50 AM MDT 8:25 PM MDT
Astronomical Twilight 5:15 AM MDT 8:59 PM MDT
Moon 4:57 PM MDT (9/15) 2:28 AM MDT (9/15)
Length of Visible Light 13h 27m
Length of Day
12h 29m
Waxing Gibbous, 82% of the Moon is Illuminated
Sep 15
Waxing Gibbous
Sep 19
Full
Sep 26
Last Quarter
Oct 4
New
Oct 11
First Quarter

Hourly Weather History & Observations

Time (MDT) Temp. Dew Point Humidity Pressure Visibility Wind Dir Wind Speed Gust Speed Precip Events Conditions
12:15 AM 51.8 °F 50.0 °F 94% 30.31 in 0.2 mi NW 12.7 mph - N/A   Heavy Drizzle
12:35 AM 51.8 °F 50.0 °F 94% 30.31 in 0.2 mi NW 11.5 mph - N/A   Heavy Drizzle
12:55 AM 51.8 °F 50.0 °F 94% 30.31 in 0.2 mi NW 11.5 mph - N/A   Heavy Drizzle
1:15 AM 50.0 °F 50.0 °F 100% 30.31 in 0.2 mi NW 9.2 mph - N/A Rain Heavy Rain
1:35 AM 51.8 °F 50.0 °F 94% 30.32 in 0.2 mi NW 9.2 mph - N/A Rain Light Rain
1:55 AM 50.0 °F 50.0 °F 100% 30.32 in 0.2 mi NW 9.2 mph - N/A Rain Rain
2:15 AM 50.0 °F 50.0 °F 100% 30.32 in 0.2 mi NW 8.1 mph - N/A Rain Rain
2:35 AM 50.0 °F 50.0 °F 100% 30.32 in 0.2 mi NW 10.4 mph - N/A Rain Light Rain
2:55 AM 50.0 °F 50.0 °F 100% 30.32 in 0.2 mi NW 9.2 mph - N/A Rain Heavy Rain
3:15 AM 51.8 °F 50.0 °F 94% 30.32 in 0.2 mi NW 9.2 mph - N/A Rain Heavy Rain
3:35 AM 51.8 °F 50.0 °F 94% 30.32 in 0.2 mi NW 10.4 mph - N/A Rain Heavy Rain
3:55 AM 51.8 °F 50.0 °F 94% 30.33 in 0.2 mi NNW 11.5 mph - N/A Rain Rain
4:15 AM 51.8 °F 50.0 °F 94% 30.33 in 0.2 mi NNW 8.1 mph - N/A Rain Light Rain
4:35 AM 51.8 °F 50.0 °F 94% 30.34 in 0.2 mi North 6.9 mph - N/A Rain Heavy Rain
4:55 AM 51.8 °F 50.0 °F 94% 30.33 in 0.2 mi NNW 11.5 mph - N/A Rain Light Rain
5:15 AM 51.8 °F 50.0 °F 94% 30.34 in 0.2 mi North 11.5 mph - N/A Rain Heavy Rain
5:35 AM 51.8 °F 50.0 °F 94% 30.34 in 0.2 mi NNE 11.5 mph - N/A Rain Rain
5:55 AM 51.8 °F 50.0 °F 94% 30.34 in 0.2 mi North 10.4 mph - N/A Rain Heavy Rain
6:15 AM 50.0 °F 50.0 °F 100% 30.35 in 0.2 mi NNE 11.5 mph - N/A   Heavy Drizzle
6:35 AM 50.0 °F 50.0 °F 100% 30.35 in 0.2 mi NNE 11.5 mph - N/A   Heavy Drizzle
6:55 AM 50.0 °F 50.0 °F 100% 30.35 in 0.2 mi NNE 10.4 mph - N/A   Heavy Drizzle
7:15 AM 50.0 °F 50.0 °F 100% 30.36 in 0.2 mi NNE 8.1 mph - N/A   Heavy Drizzle
7:35 AM 50.0 °F 50.0 °F 100% 30.36 in 0.2 mi NNE 8.1 mph - N/A   Heavy Drizzle
7:55 AM 50.0 °F 50.0 °F 100% 30.36 in 0.2 mi NNE 6.9 mph - N/A   Heavy Drizzle
8:15 AM 50.0 °F 50.0 °F 100% 30.37 in 0.2 mi NE 6.9 mph - N/A   Heavy Drizzle
8:35 AM 51.8 °F 50.0 °F 94% 30.38 in 0.2 mi NNE 6.9 mph - N/A   Heavy Drizzle
8:55 AM 51.8 °F 50.0 °F 94% 30.38 in 0.2 mi NNE 5.8 mph - N/A   Heavy Drizzle
9:15 AM 51.8 °F 50.0 °F 94% 30.38 in 0.2 mi NE 3.5 mph - N/A Rain Rain
9:35 AM 51.8 °F 50.0 °F 94% 30.38 in 0.2 mi NNE 5.8 mph - N/A   Drizzle
9:55 AM 51.8 °F 50.0 °F 94% 30.39 in 0.2 mi NE 4.6 mph - N/A   Drizzle
10:15 AM 51.8 °F 51.8 °F 100% 30.39 in 0.2 mi NE 5.8 mph - N/A   Light Drizzle
10:35 AM 51.8 °F 50.0 °F 94% 30.40 in 0.2 mi NNE 4.6 mph - N/A   Light Drizzle
10:55 AM 51.8 °F 51.8 °F 100% 30.40 in 1.0 mi NE 3.5 mph - N/A   Overcast
11:15 AM 51.8 °F 51.8 °F 100% 30.40 in 0.2 mi NE 4.6 mph - N/A Fog Fog
11:35 AM 51.8 °F 51.8 °F 100% 30.40 in 5.0 mi East 8.1 mph 18.4 mph N/A   Overcast
11:55 AM 51.8 °F 51.8 °F 100% 30.40 in 4.0 mi East 12.7 mph 19.6 mph N/A   Overcast
12:15 PM 51.8 °F 51.8 °F 100% 30.40 in 1.0 mi East 12.7 mph 20.7 mph N/A   Overcast
12:35 PM 51.8 °F 51.8 °F 100% 30.40 in 0.2 mi ESE 15.0 mph 23.0 mph N/A Fog Fog
12:55 PM 51.8 °F 51.8 °F 100% 30.40 in 0.2 mi ESE 13.8 mph - N/A Fog Fog
1:15 PM 51.8 °F 51.8 °F 100% 30.40 in 0.5 mi ESE 13.8 mph 18.4 mph N/A Fog Fog
1:35 PM 51.8 °F 51.8 °F 100% 30.40 in 5.0 mi ESE 13.8 mph 18.4 mph N/A   Overcast
1:55 PM 51.8 °F 51.8 °F 100% 30.40 in 10.0 mi ESE 11.5 mph - N/A   Overcast
2:15 PM 51.8 °F 51.8 °F 100% 30.39 in 10.0 mi ESE 13.8 mph - N/A   Overcast
2:35 PM 51.8 °F 51.8 °F 100% 30.39 in 10.0 mi ESE 12.7 mph - N/A   Overcast
2:55 PM 53.6 °F 51.8 °F 94% 30.38 in 10.0 mi ESE 12.7 mph - N/A   Overcast
3:15 PM 53.6 °F 51.8 °F 94% 30.38 in 10.0 mi ESE 17.3 mph - N/A   Overcast
3:35 PM 55.4 °F 50.0 °F 82% 30.38 in 10.0 mi ESE 13.8 mph - N/A   Overcast
3:55 PM 55.4 °F 50.0 °F 82% 30.38 in 10.0 mi ESE 12.7 mph - N/A   Overcast
4:15 PM 53.6 °F 50.0 °F 88% 30.38 in 10.0 mi ESE 13.8 mph - N/A   Overcast
4:35 PM 55.4 °F 50.0 °F 82% 30.38 in 10.0 mi ESE 10.4 mph - N/A   Overcast
4:55 PM 55.4 °F 50.0 °F 82% 30.37 in 10.0 mi ESE 11.5 mph - N/A   Scattered Clouds
5:15 PM 55.4 °F 48.2 °F 77% 30.36 in 10.0 mi ESE 12.7 mph - N/A   Mostly Cloudy
5:35 PM 55.4 °F 48.2 °F 77% 30.36 in 10.0 mi ESE 12.7 mph - N/A   Mostly Cloudy
5:55 PM 55.4 °F 48.2 °F 77% 30.36 in 10.0 mi ESE 15.0 mph - N/A   Mostly Cloudy
6:15 PM 53.6 °F 48.2 °F 82% 30.36 in 10.0 mi East 19.6 mph - N/A   Overcast
6:35 PM 53.6 °F 48.2 °F 82% 30.36 in 10.0 mi ESE 16.1 mph - N/A   Overcast
6:55 PM 53.6 °F 50.0 °F 88% 30.36 in 10.0 mi ESE 18.4 mph 24.2 mph N/A   Overcast
7:15 PM 53.6 °F 48.2 °F 82% 30.35 in 10.0 mi ESE 19.6 mph - N/A   Overcast
7:35 PM 51.8 °F 48.2 °F 88% 30.34 in 10.0 mi East 20.7 mph 26.5 mph N/A   Overcast
7:55 PM 51.8 °F 48.2 °F 88% 30.34 in 10.0 mi ESE 21.9 mph - N/A   Mostly Cloudy
8:15 PM 51.8 °F 46.4 °F 82% 30.34 in 10.0 mi ESE 24.2 mph 31.1 mph N/A   Mostly Cloudy
8:35 PM 51.8 °F 48.2 °F 88% 30.34 in 10.0 mi ESE 24.2 mph 29.9 mph N/A   Mostly Cloudy
8:55 PM 51.8 °F 48.2 °F 88% 30.34 in 10.0 mi ESE 25.3 mph 29.9 mph N/A   Scattered Clouds
9:15 PM 51.8 °F 48.2 °F 88% 30.34 in 10.0 mi ESE 25.3 mph 33.4 mph N/A   Clear
9:35 PM 51.8 °F 48.2 °F 88% 30.34 in 10.0 mi SE 23.0 mph 28.8 mph N/A   Mostly Cloudy
9:55 PM 51.8 °F 48.2 °F 88% 30.34 in 10.0 mi ESE 28.8 mph 33.4 mph N/A   Overcast
10:15 PM 51.8 °F 48.2 °F 88% 30.35 in 10.0 mi ESE 19.6 mph - N/A   Overcast
10:35 PM 51.8 °F 48.2 °F 88% 30.34 in 10.0 mi ESE 16.1 mph - N/A   Overcast
10:55 PM 51.8 °F 48.2 °F 88% 30.34 in 10.0 mi ESE 15.0 mph - N/A   Overcast
11:15 PM 51.8 °F 48.2 °F 88% 30.33 in 10.0 mi SE 13.8 mph - N/A   Overcast
11:35 PM 51.8 °F 48.2 °F 88% 30.33 in 10.0 mi SE 16.1 mph - N/A   Overcast
11:55 PM 50.0 °F 48.2 °F 94% 30.32 in 10.0 mi SE 17.3 mph - N/A   Overcast